| time (UTC) | temp F | wind direction | speed knots | gust knots | rain 1hr in | rain 24hr in | rain mn in | humidity % | barometer mb |
| 20260906223502 | 77 | 89 | 1.7 | 5.2 | 0.00 | 0.00 | 0.00 | 58 | 1016.1 |
| 20260906223000 | 76 | 75 | 1.7 | 3.5 | 0.00 | 0.00 | 0.00 | 59 | 1016.2 |
| 20260906222455 | 77 | 62 | 5.2 | 7.0 | 0.00 | 0.00 | 0.00 | 60 | 1016.1 |
| 20260906221953 | 76 | 18 | 1.7 | 6.1 | 0.00 | 0.00 | 0.00 | 60 | 1015.8 |
| 20260906221447 | 76 | 85 | 1.7 | 7.0 | 0.00 | 0.00 | 0.00 | 60 | 1015.7 |
| 20260906220942 | 75 | 63 | 1.7 | 7.0 | 0.00 | 0.00 | 0.00 | 63 | 1015.9 |
| 20260906220437 | 75 | 9 | 2.6 | 8.7 | 0.00 | 0.00 | 0.00 | 63 | 1015.8 |
| 20260906215937 | 76 | 17 | 4.3 | 7.0 | 0.00 | 0.00 | 0.00 | 59 | 1015.7 |
| 20260906215437 | 76 | 22 | 3.5 | 5.2 | 0.00 | 0.00 | 0.00 | 59 | 1015.9 |
| 20260906214935 | 76 | 27 | 3.5 | 7.8 | 0.00 | 0.00 | 0.00 | 60 | 1016.0 |
| 20260906214434 | 75 | 12 | 4.3 | 7.0 | 0.00 | 0.00 | 0.00 | 60 | 1015.8 |
| 20260906213933 | 76 | 324 | 7.0 | 7.8 | 0.00 | 0.00 | 0.00 | 60 | 1016.1 |
| 20260906213428 | 74 | 39 | 5.2 | 7.8 | 0.00 | 0.00 | 0.00 | 62 | 1016.0 |
| 20260906212926 | 74 | 60 | 0.0 | 3.5 | 0.00 | 0.00 | 0.00 | 63 | 1016.1 |
| 20260906212421 | 77 | 59 | 1.7 | 3.5 | 0.00 | 0.00 | 0.00 | 60 | 1016.1 |
| 20260906211921 | 78 | 23 | 3.5 | 7.0 | 0.00 | 0.00 | 0.00 | 58 | 1016.1 |
| 20260906211416 | 76 | 24 | 3.5 | 7.0 | 0.00 | 0.00 | 0.00 | 60 | 1016.4 |
| 20260906210910 | 74 | 69 | 0.0 | 2.6 | 0.00 | 0.00 | 0.00 | 60 | 1016.3 |
| 20260906210407 | 74 | 108 | 3.5 | 6.1 | 0.00 | 0.00 | 0.00 | 62 | 1016.6 |
| 20260906205900 | 74 | 57 | 1.7 | 2.6 | 0.00 | 0.00 | 0.00 | 62 | 1016.6 |
| 20260906205357 | 74 | 347 | 4.3 | 7.8 | 0.00 | 0.00 | 0.00 | 64 | 1016.6 |
| 20260906204852 | 75 | 37 | 1.7 | 6.1 | 0.00 | 0.00 | 0.00 | 62 | 1016.4 |
| 20260906204351 | 75 | 34 | 1.7 | 6.1 | 0.00 | 0.00 | 0.00 | 63 | 1016.6 |
| 20260906203851 | 76 | 111 | 6.1 | 7.0 | 0.00 | 0.00 | 0.00 | 61 | 1016.8 |
| 20260906203347 | 74 | 98 | 1.7 | 3.5 | 0.00 | 0.00 | 0.00 | 62 | 1016.9 |
| 20260906202844 | 73 | 60 | 0.9 | 3.5 | 0.00 | 0.00 | 0.00 | 65 | 1017.2 |
| 20260906202338 | 73 | 113 | 1.7 | 3.5 | 0.00 | 0.00 | 0.00 | 65 | 1017.2 |
| 20260906201837 | 73 | 132 | 2.6 | 5.2 | 0.00 | 0.00 | 0.00 | 65 | 1017.1 |
| 20260906201333 | 73 | 68 | 3.5 | 6.1 | 0.00 | 0.00 | 0.00 | 65 | 1017.2 |
| 20260906200828 | 73 | 129 | 0.9 | 1.7 | 0.00 | 0.00 | 0.00 | 63 | 1017.3 |
| 20260906200324 | 72 | 158 | 3.5 | 7.8 | 0.00 | 0.00 | 0.00 | 67 | 1017.2 |
| 20260906195818 | 72 | 51 | 1.7 | 2.6 | 0.00 | 0.00 | 0.00 | 67 | 1017.3 |
| 20260906195315 | 73 | 36 | 4.3 | 6.1 | 0.00 | 0.00 | 0.00 | 65 | 1017.3 |
| 20260906194810 | 74 | 9 | 5.2 | 7.0 | 0.00 | 0.00 | 0.00 | 66 | 1017.6 |
| 20260906194301 | 72 | 85 | 1.7 | 7.0 | 0.00 | 0.00 | 0.00 | 68 | 1017.5 |
| 20260906193801 | 72 | 61 | 1.7 | 6.1 | 0.00 | 0.00 | 0.00 | 68 | 1017.7 |
| 20260906193255 | 72 | 5 | 3.5 | 6.1 | 0.00 | 0.00 | 0.00 | 68 | 1017.7 |
| 20260906192751 | 71 | 24 | 1.7 | 3.5 | 0.00 | 0.00 | 0.00 | 69 | 1017.8 |
| 20260906192245 | 72 | 326 | 3.5 | 5.2 | 0.00 | 0.00 | 0.00 | 69 | 1017.9 |
| 20260906191745 | 71 | 347 | 2.6 | 2.6 | 0.00 | 0.00 | 0.00 | 68 | 1017.8 |
| 20260906191240 | 71 | 45 | 1.7 | 5.2 | 0.00 | 0.00 | 0.00 | 70 | 1017.9 |
| 20260906190739 | 69 | 328 | 3.5 | 8.7 | 0.00 | 0.00 | 0.00 | 72 | 1017.8 |
| 20260906190234 | 70 | 38 | 5.2 | 7.0 | 0.00 | 0.00 | 0.00 | 71 | 1018.0 |
| 20260906185733 | 71 | 352 | 7.0 | 7.8 | 0.00 | 0.00 | 0.00 | 72 | 1018.0 |
| 20260906185233 | 70 | 61 | 1.7 | 6.1 | 0.00 | 0.00 | 0.00 | 71 | 1018.4 |
| 20260906184733 | 68 | 16 | 4.3 | 6.1 | 0.00 | 0.00 | 0.00 | 74 | 1018.2 |
| 20260906184228 | 69 | 15 | 3.5 | 8.7 | 0.00 | 0.00 | 0.00 | 73 | 1018.6 |
| 20260906183724 | 68 | 31 | 2.6 | 6.1 | 0.00 | 0.00 | 0.00 | 73 | 1018.5 |
| 20260906183220 | 68 | 14 | 4.3 | 8.7 | 0.00 | 0.00 | 0.00 | 73 | 1018.6 |
| 20260906182720 | 68 | 49 | 2.6 | 12.2 | 0.00 | 0.00 | 0.00 | 74 | 1018.7 |
| 20260906182216 | 67 | 346 | 7.0 | 11.3 | 0.00 | 0.00 | 0.00 | 76 | 1018.9 |
| 20260906181711 | 68 | 17 | 7.0 | 8.7 | 0.00 | 0.00 | 0.00 | 75 | 1018.8 |
| 20260906181208 | 67 | 358 | 1.7 | 3.5 | 0.00 | 0.00 | 0.00 | 76 | 1018.8 |
| 20260906180701 | 67 | 40 | 5.2 | 8.7 | 0.00 | 0.00 | 0.00 | 77 | 1019.0 |
| 20260906180156 | 67 | 24 | 3.5 | 6.1 | 0.00 | 0.00 | 0.00 | 76 | 1019.0 |
| 20260906175654 | 66 | 23 | 3.5 | 9.6 | 0.00 | 0.00 | 0.00 | 77 | 1019.0 |
| 20260906175149 | 66 | 308 | 8.7 | 11.3 | 0.00 | 0.00 | 0.00 | 79 | 1019.1 |
| 20260906174648 | 65 | 24 | 5.2 | 8.7 | 0.00 | 0.00 | 0.00 | 80 | 1019.4 |
| 20260906174143 | 66 | 18 | 6.1 | 9.6 | 0.00 | 0.00 | 0.00 | 80 | 1019.5 |
| 20260906173638 | 65 | 25 | 5.2 | 8.7 | 0.00 | 0.00 | 0.00 | 82 | 1019.4 |
| 20260906173134 | 65 | 331 | 4.3 | 8.7 | 0.00 | 0.00 | 0.00 | 82 | 1019.6 |
| 20260906172632 | 65 | 17 | 5.2 | 8.7 | 0.00 | 0.00 | 0.00 | 82 | 1019.8 |
| 20260906172129 | 65 | 353 | 7.8 | 11.3 | 0.00 | 0.00 | 0.00 | 81 | 1019.7 |
| 20260906171628 | 65 | 348 | 7.0 | 9.6 | 0.00 | 0.00 | 0.00 | 81 | 1019.6 |
| 20260906171124 | 65 | 28 | 3.5 | 7.0 | 0.00 | 0.00 | 0.00 | 81 | 1019.8 |
| 20260906170620 | 64 | 14 | 6.1 | 8.7 | 0.00 | 0.00 | 0.00 | 83 | 1019.8 |
| 20260906170119 | 64 | 336 | 3.5 | 7.8 | 0.00 | 0.00 | 0.00 | 84 | 1019.8 |
| 20260906165615 | 63 | 20 | 3.5 | 11.3 | 0.00 | 0.00 | 0.00 | 85 | 1019.8 |
| 20260906165111 | 64 | 18 | 3.5 | 5.2 | 0.00 | 0.00 | 0.00 | 84 | 1019.8 |
| 20260906164609 | 63 | 11 | 3.5 | 7.0 | 0.00 | 0.00 | 0.00 | 83 | 1019.9 |
| 20260906164105 | 63 | 349 | 7.0 | 8.7 | 0.00 | 0.00 | 0.00 | 84 | 1020.0 |
| 20260906163601 | 63 | 339 | 7.8 | 9.6 | 0.00 | 0.00 | 0.00 | 84 | 1020.2 |
| 20260906163056 | 63 | 356 | 6.1 | 8.7 | 0.00 | 0.00 | 0.00 | 85 | 1020.0 |
| 20260906162554 | 62 | 10 | 3.5 | 7.0 | 0.00 | 0.00 | 0.00 | 86 | 1019.9 |
| 20260906162048 | 62 | 22 | 4.3 | 8.7 | 0.00 | 0.00 | 0.00 | 86 | 1019.9 |
| 20260906161543 | 63 | 342 | 8.7 | 9.6 | 0.00 | 0.00 | 0.00 | 85 | 1019.8 |
| 20260906161042 | 62 | 328 | 4.3 | 7.8 | 0.00 | 0.00 | 0.00 | 86 | 1020.2 |
| 20260906160541 | 62 | 1 | 7.0 | 8.7 | 0.00 | 0.00 | 0.00 | 86 | 1019.9 |
| 20260906160040 | 62 | 345 | 7.8 | 8.7 | 0.00 | 0.00 | 0.00 | 86 | 1020.2 |
| 20260906155538 | 62 | 22 | 2.6 | 8.7 | 0.00 | 0.00 | 0.00 | 86 | 1019.9 |
| 20260906155034 | 63 | 350 | 9.6 | 12.2 | 0.00 | 0.00 | 0.00 | 85 | 1019.8 |
| 20260906154529 | 62 | 9 | 7.0 | 8.7 | 0.00 | 0.00 | 0.00 | 84 | 1019.8 |
| 20260906154028 | 62 | 14 | 1.7 | 6.1 | 0.00 | 0.00 | 0.00 | 85 | 1019.9 |
| 20260906153527 | 62 | 356 | 6.1 | 7.0 | 0.00 | 0.00 | 0.00 | 85 | 1020.2 |
| 20260906153023 | 62 | 358 | 5.2 | 8.7 | 0.00 | 0.00 | 0.00 | 85 | 1020.0 |
| 20260906152516 | 62 | 44 | 0.9 | 3.5 | 0.00 | 0.00 | 0.00 | 84 | 1019.8 |
| 20260906152016 | 63 | 333 | 2.6 | 5.2 | 0.00 | 0.00 | 0.00 | 83 | 1020.0 |
| 20260906151512 | 62 | 41 | 1.7 | 2.6 | 0.00 | 0.00 | 0.00 | 84 | 1019.7 |
| 20260906151007 | 62 | 334 | 5.2 | 6.1 | 0.00 | 0.00 | 0.00 | 84 | 1019.7 |
| 20260906150502 | 63 | 321 | 2.6 | 5.2 | 0.00 | 0.00 | 0.00 | 82 | 1019.6 |
| 20260906145956 | 62 | 82 | 3.5 | 6.1 | 0.00 | 0.00 | 0.00 | 84 | 1019.5 |
| 20260906145455 | 61 | 334 | 5.2 | 7.8 | 0.00 | 0.00 | 0.00 | 85 | 1019.4 |
| 20260906144955 | 62 | 6 | 3.5 | 6.1 | 0.00 | 0.00 | 0.00 | 84 | 1019.4 |
| 20260906144450 | 61 | 354 | 4.3 | 7.0 | 0.00 | 0.00 | 0.00 | 85 | 1019.6 |
| 20260906143945 | 61 | 352 | 5.2 | 7.8 | 0.00 | 0.00 | 0.00 | 86 | 1019.6 |
| 20260906143441 | 60 | 358 | 4.3 | 6.1 | 0.00 | 0.00 | 0.00 | 87 | 1019.5 |
| 20260906142936 | 59 | 335 | 3.5 | 5.2 | 0.00 | 0.00 | 0.00 | 88 | 1019.5 |
| 20260906142431 | 59 | 357 | 2.6 | 5.2 | 0.00 | 0.00 | 0.00 | 88 | 1019.3 |
| 20260906141926 | 59 | 328 | 3.5 | 5.2 | 0.00 | 0.00 | 0.00 | 88 | 1019.6 |
| 20260906141425 | 59 | 348 | 3.5 | 3.5 | 0.00 | 0.00 | 0.00 | 88 | 1019.4 |
| 20260906140920 | 59 | 329 | 1.7 | 3.5 | 0.00 | 0.00 | 0.00 | 88 | 1019.5 |
| 20260906140415 | 59 | 279 | 3.5 | 5.2 | 0.00 | 0.00 | 0.00 | 88 | 1019.6 |
| 20260906135913 | 59 | 294 | 3.5 | 3.5 | 0.00 | 0.00 | 0.00 | 88 | 1019.3 |
| 20260906135412 | 58 | 265 | 2.6 | 3.5 | 0.00 | 0.00 | 0.00 | 88 | 1019.1 |
| 20260906134908 | 58 | 304 | 1.7 | 3.5 | 0.00 | 0.00 | 0.00 | 89 | 1019.1 |
| 20260906134403 | 58 | 281 | 3.5 | 3.5 | 0.00 | 0.00 | 0.00 | 89 | 1019.4 |
| 20260906133858 | 58 | 297 | 1.7 | 2.6 | 0.00 | 0.00 | 0.00 | 89 | 1019.1 |
| 20260906133353 | 58 | 40 | 0.9 | 1.7 | 0.00 | 0.00 | 0.00 | 88 | 1019.4 |
| 20260906132849 | 58 | 296 | 3.5 | 6.1 | 0.00 | 0.00 | 0.00 | 88 | 1019.1 |
| 20260906132344 | 58 | 317 | 1.7 | 5.2 | 0.00 | 0.00 | 0.00 | 88 | 1019.0 |
| 20260906131839 | 59 | 295 | 5.2 | 6.1 | 0.00 | 0.00 | 0.00 | 87 | 1019.3 |
| 20260906131334 | 58 | 23 | 1.7 | 3.5 | 0.00 | 0.00 | 0.00 | 87 | 1018.6 |
| 20260906130830 | 58 | 30 | 1.7 | 1.7 | 0.00 | 0.00 | 0.00 | 87 | 1018.9 |
| 20260906130330 | 58 | 24 | 1.7 | 2.6 | 0.00 | 0.00 | 0.00 | 87 | 1018.9 |
| 20260906125829 | 58 | 33 | 1.7 | 3.5 | 0.00 | 0.00 | 0.00 | 87 | 1019.3 |
| 20260906125326 | 58 | 40 | 1.7 | 3.5 | 0.00 | 0.00 | 0.00 | 87 | 1019.1 |
| 20260906124821 | 58 | 4 | 3.5 | 3.5 | 0.00 | 0.00 | 0.00 | 87 | 1019.3 |
| 20260906124317 | 58 | 31 | 1.7 | 5.2 | 0.00 | 0.00 | 0.00 | 87 | 1019.1 |
| 20260906123816 | 58 | 325 | 2.6 | 3.5 | 0.00 | 0.00 | 0.00 | 87 | 1019.3 |
| 20260906123311 | 58 | 353 | 2.6 | 5.2 | 0.00 | 0.00 | 0.00 | 87 | 1019.3 |
| 20260906122811 | 58 | 38 | 2.6 | 5.2 | 0.00 | 0.00 | 0.00 | 86 | 1019.4 |
| 20260906122301 | 58 | 30 | 1.7 | 5.2 | 0.00 | 0.00 | 0.00 | 86 | 1019.3 |
| 20260906121758 | 59 | 27 | 3.5 | 5.2 | 0.00 | 0.00 | 0.00 | 86 | 1019.1 |
| 20260906121253 | 59 | 31 | 1.7 | 5.2 | 0.00 | 0.00 | 0.00 | 85 | 1019.4 |
| 20260906120748 | 59 | 33 | 1.7 | 5.2 | 0.00 | 0.00 | 0.00 | 85 | 1019.3 |
| 20260906120245 | 59 | 27 | 1.7 | 3.5 | 0.00 | 0.00 | 0.00 | 85 | 1019.5 |
| 20260906115740 | 59 | 12 | 2.6 | 5.2 | 0.00 | 0.00 | 0.00 | 85 | 1019.4 |
| 20260906115235 | 59 | 21 | 2.6 | 6.1 | 0.00 | 0.00 | 0.00 | 85 | 1019.3 |
| 20260906114734 | 59 | 351 | 2.6 | 3.5 | 0.00 | 0.00 | 0.00 | 84 | 1019.4 |
| 20260906114230 | 59 | 0 | 2.6 | 5.2 | 0.00 | 0.00 | 0.00 | 84 | 1019.4 |
| 20260906113725 | 60 | 26 | 3.5 | 5.2 | 0.00 | 0.00 | 0.00 | 84 | 1019.3 |
| 20260906113224 | 60 | 19 | 3.5 | 5.2 | 0.00 | 0.00 | 0.00 | 83 | 1019.4 |
| 20260906112724 | 60 | 29 | 3.5 | 5.2 | 0.00 | 0.00 | 0.00 | 83 | 1019.3 |
| 20260906112221 | 60 | 19 | 2.6 | 7.8 | 0.00 | 0.00 | 0.00 | 83 | 1019.4 |
| 20260906111720 | 59 | 33 | 1.7 | 3.5 | 0.00 | 0.00 | 0.00 | 84 | 1019.5 |
| 20260906111215 | 59 | 34 | 2.6 | 3.5 | 0.00 | 0.00 | 0.00 | 83 | 1019.6 |
| 20260906110710 | 59 | 27 | 1.7 | 2.6 | 0.00 | 0.00 | 0.00 | 83 | 1019.7 |
| 20260906110206 | 60 | 21 | 3.5 | 6.1 | 0.00 | 0.00 | 0.00 | 83 | 1019.6 |
| 20260906105700 | 59 | 35 | 1.7 | 3.5 | 0.00 | 0.00 | 0.00 | 83 | 1019.7 |
| 20260906105156 | 59 | 30 | 1.7 | 2.6 | 0.00 | 0.00 | 0.00 | 82 | 1019.9 |
| 20260906104655 | 59 | 20 | 2.6 | 3.5 | 0.00 | 0.00 | 0.00 | 82 | 1019.6 |
| 20260906104149 | 59 | 12 | 1.7 | 3.5 | 0.00 | 0.00 | 0.00 | 82 | 1019.7 |
| 20260906103647 | 59 | 26 | 1.7 | 3.5 | 0.00 | 0.00 | 0.00 | 82 | 1019.6 |
| 20260906103143 | 59 | 31 | 2.6 | 2.6 | 0.00 | 0.00 | 0.00 | 82 | 1019.6 |
| 20260906102637 | 59 | 21 | 3.5 | 3.5 | 0.00 | 0.00 | 0.00 | 82 | 1019.6 |
| 20260906102132 | 59 | 20 | 2.6 | 3.5 | 0.00 | 0.00 | 0.00 | 81 | 1020.0 |
| 20260906101631 | 59 | 17 | 2.6 | 5.2 | 0.00 | 0.00 | 0.00 | 81 | 1020.0 |
| 20260906101131 | 58 | 4 | 3.5 | 5.2 | 0.00 | 0.00 | 0.00 | 82 | 1019.7 |
| 20260906100627 | 58 | 23 | 1.7 | 5.2 | 0.00 | 0.00 | 0.00 | 81 | 1019.7 |
| 20260906100122 | 57 | 25 | 1.7 | 2.6 | 0.00 | 0.00 | 0.00 | 81 | 1019.6 |
| 20260906095621 | 57 | 20 | 2.6 | 2.6 | 0.00 | 0.00 | 0.00 | 80 | 1019.9 |
| 20260906095117 | 58 | 353 | 2.6 | 5.2 | 0.00 | 0.00 | 0.00 | 79 | 1019.8 |
| 20260906094616 | 58 | 336 | 4.3 | 5.2 | 0.00 | 0.00 | 0.00 | 80 | 1019.7 |
| 20260906094112 | 58 | 339 | 4.3 | 6.1 | 0.00 | 0.00 | 0.00 | 80 | 1019.8 |
| 20260906093608 | 58 | 353 | 2.6 | 3.5 | 0.00 | 0.00 | 0.00 | 79 | 1019.5 |
| 20260906093102 | 58 | 350 | 3.5 | 3.5 | 0.00 | 0.00 | 0.00 | 79 | 1019.6 |
| 20260906092558 | 58 | 339 | 3.5 | 3.5 | 0.00 | 0.00 | 0.00 | 78 | 1019.8 |
| 20260906092053 | 58 | 303 | 1.7 | 3.5 | 0.00 | 0.00 | 0.00 | 78 | 1019.9 |
| 20260906091548 | 58 | 20 | 3.5 | 5.2 | 0.00 | 0.00 | 0.00 | 78 | 1019.6 |
| 20260906091045 | 57 | 351 | 3.5 | 3.5 | 0.00 | 0.00 | 0.00 | 78 | 1019.7 |
| 20260906090545 | 57 | 340 | 1.7 | 2.6 | 0.00 | 0.00 | 0.00 | 77 | 1019.8 |
| 20260906090040 | 58 | 326 | 3.5 | 5.2 | 0.00 | 0.00 | 0.00 | 77 | 1019.8 |
| 20260906085538 | 57 | 347 | 2.6 | 5.2 | 0.00 | 0.00 | 0.00 | 76 | 1019.8 |
| 20260906085038 | 58 | 320 | 3.5 | 5.2 | 0.00 | 0.00 | 0.00 | 77 | 1019.8 |
| 20260906084534 | 58 | 332 | 3.5 | 5.2 | 0.00 | 0.00 | 0.00 | 75 | 1019.9 |
| 20260906084032 | 57 | 323 | 3.5 | 6.1 | 0.00 | 0.00 | 0.00 | 75 | 1019.8 |
| 20260906083528 | 57 | 330 | 4.3 | 5.2 | 0.00 | 0.00 | 0.00 | 74 | 1019.7 |
| 20260906083028 | 58 | 346 | 3.5 | 5.2 | 0.00 | 0.00 | 0.00 | 73 | 1020.0 |
| 20260906082523 | 58 | 355 | 3.5 | 3.5 | 0.00 | 0.00 | 0.00 | 73 | 1019.8 |
| 20260906082019 | 58 | 347 | 2.6 | 3.5 | 0.00 | 0.00 | 0.00 | 72 | 1020.2 |
| 20260906081514 | 57 | 355 | 2.6 | 3.5 | 0.00 | 0.00 | 0.00 | 73 | 1019.9 |
| 20260906081010 | 58 | 333 | 1.7 | 2.6 | 0.00 | 0.00 | 0.00 | 72 | 1020.3 |
| 20260906080506 | 58 | 294 | 2.6 | 2.6 | 0.00 | 0.00 | 0.00 | 71 | 1020.2 |
| 20260906080002 | 58 | 10 | 1.7 | 1.7 | 0.00 | 0.00 | 0.00 | 71 | 1020.0 |
| 20260906075455 | 58 | 40 | 0.9 | 1.7 | 0.00 | 0.00 | 0.00 | 70 | 1020.3 |
| 20260906074950 | 58 | 311 | 1.7 | 1.7 | 0.00 | 0.00 | 0.00 | 71 | 1019.9 |
| 20260906074445 | 59 | 16 | 0.0 | 1.7 | 0.00 | 0.00 | 0.00 | 69 | 1020.4 |
| 20260906073943 | 59 | 84 | 0.0 | 1.7 | 0.00 | 0.00 | 0.00 | 68 | 1020.0 |
| 20260906073438 | 60 | 356 | 0.9 | 1.7 | 0.00 | 0.00 | 0.00 | 68 | 1020.0 |
| 20260906072935 | 60 | 80 | 0.0 | 1.7 | 0.00 | 0.00 | 0.00 | 66 | 1020.0 |
| 20260906072430 | 59 | 75 | 0.0 | 0.9 | 0.00 | 0.00 | 0.00 | 66 | 1019.9 |
| 20260906071926 | 58 | 78 | 0.0 | 1.7 | 0.00 | 0.00 | 0.00 | 67 | 1020.3 |
| 20260906071422 | 59 | 67 | 0.0 | 0.0 | 0.00 | 0.00 | 0.00 | 67 | 1020.4 |
| 20260906070918 | 59 | 75 | 0.0 | 0.0 | 0.00 | 0.00 | 0.00 | 65 | 1020.5 |
| 20260906070413 | 59 | 100 | 0.0 | 0.0 | 0.00 | 0.00 | 0.00 | 64 | 1020.3 |
| 20260906065909 | 60 | 113 | 0.0 | 0.0 | 0.00 | 0.00 | 0.00 | 62 | 1020.4 |
| 20260906065403 | 61 | 101 | 0.9 | 1.7 | 0.00 | 0.00 | 0.00 | 62 | 1020.5 |
| 20260906064859 | 61 | 95 | 0.0 | 0.0 | 0.00 | 0.00 | 0.00 | 62 | 1020.2 |
| 20260906064354 | 61 | 47 | 0.9 | 1.7 | 0.00 | 0.00 | 0.00 | 61 | 1020.3 |
| 20260906063848 | 62 | 64 | 0.0 | 0.9 | 0.00 | 0.00 | 0.00 | 61 | 1020.5 |
| 20260906063344 | 61 | 73 | 0.9 | 1.7 | 0.00 | 0.00 | 0.00 | 61 | 1020.3 |
| 20260906062839 | 60 | 34 | 0.9 | 1.7 | 0.00 | 0.00 | 0.00 | 61 | 1020.6 |
| 20260906062338 | 62 | 94 | 0.0 | 0.0 | 0.00 | 0.00 | 0.00 | 59 | 1020.5 |
| 20260906061834 | 62 | 85 | 0.9 | 1.7 | 0.00 | 0.00 | 0.00 | 58 | 1020.5 |
| 20260906061330 | 62 | 148 | 0.9 | 1.7 | 0.00 | 0.00 | 0.00 | 58 | 1020.4 |
| 20260906060825 | 62 | 357 | 1.7 | 2.6 | 0.00 | 0.00 | 0.00 | 58 | 1020.3 |
| 20260906060323 | 62 | 70 | 0.9 | 0.9 | 0.00 | 0.00 | 0.00 | 57 | 1020.4 |
| 20260906055818 | 63 | 108 | 0.0 | 0.0 | 0.00 | 0.00 | 0.00 | 56 | 1020.5 |
| 20260906055314 | 63 | 83 | 0.0 | 0.9 | 0.00 | 0.00 | 0.00 | 55 | 1020.3 |
| 20260906054809 | 64 | 59 | 0.9 | 1.7 | 0.00 | 0.00 | 0.00 | 54 | 1020.4 |
| 20260906054304 | 64 | 304 | 1.7 | 1.7 | 0.00 | 0.00 | 0.00 | 54 | 1020.5 |
| 20260906053801 | 64 | 32 | 1.7 | 1.7 | 0.00 | 0.00 | 0.00 | 53 | 1020.4 |
| 20260906053256 | 64 | 358 | 1.7 | 1.7 | 0.00 | 0.00 | 0.00 | 53 | 1020.4 |
| 20260906052751 | 65 | 9 | 1.7 | 3.5 | 0.00 | 0.00 | 0.00 | 53 | 1020.3 |
| 20260906052247 | 65 | 22 | 0.9 | 1.7 | 0.00 | 0.00 | 0.00 | 53 | 1020.5 |
| 20260906051743 | 65 | 3 | 0.9 | 2.6 | 0.00 | 0.00 | 0.00 | 52 | 1020.4 |
| 20260906051237 | 65 | 28 | 0.9 | 1.7 | 0.00 | 0.00 | 0.00 | 52 | 1020.2 |
| 20260906050733 | 65 | 34 | 0.9 | 1.7 | 0.00 | 0.00 | 0.00 | 52 | 1020.4 |
| 20260906050228 | 65 | 79 | 0.0 | 0.0 | 0.00 | 0.00 | 0.00 | 52 | 1020.5 |
| 20260906045726 | 65 | 96 | 0.0 | 0.0 | 0.00 | 0.00 | 0.00 | 52 | 1020.6 |
| 20260906045222 | 65 | 104 | 0.0 | 0.0 | 0.00 | 0.00 | 0.00 | 52 | 1020.5 |
| 20260906044717 | 65 | 101 | 0.0 | 0.0 | 0.00 | 0.00 | 0.00 | 51 | 1020.5 |
| 20260906044212 | 66 | 87 | 0.0 | 0.9 | 0.00 | 0.00 | 0.00 | 50 | 1020.4 |
| 20260906043708 | 66 | 75 | 0.9 | 1.7 | 0.00 | 0.00 | 0.00 | 50 | 1020.5 |
| 20260906043204 | 66 | 45 | 1.7 | 1.7 | 0.00 | 0.00 | 0.00 | 50 | 1020.4 |
| 20260906042703 | 65 | 2 | 1.7 | 2.6 | 0.00 | 0.00 | 0.00 | 50 | 1020.4 |
| 20260906042156 | 65 | 36 | 0.9 | 1.7 | 0.00 | 0.00 | 0.00 | 50 | 1020.4 |
| 20260906041652 | 65 | 50 | 0.9 | 1.7 | 0.00 | 0.00 | 0.00 | 50 | 1020.6 |
| 20260906041147 | 65 | 53 | 0.9 | 1.7 | 0.00 | 0.00 | 0.00 | 50 | 1020.5 |
| 20260906040642 | 65 | 57 | 0.9 | 1.7 | 0.00 | 0.00 | 0.00 | 50 | 1020.6 |
| 20260906040138 | 65 | 35 | 0.9 | 1.7 | 0.00 | 0.00 | 0.00 | 50 | 1020.5 |
| 20260906035633 | 65 | 357 | 1.7 | 1.7 | 0.00 | 0.00 | 0.00 | 49 | 1020.4 |
| 20260906035129 | 65 | 46 | 1.7 | 1.7 | 0.00 | 0.00 | 0.00 | 49 | 1020.4 |
| 20260906034630 | 66 | 80 | 0.9 | 1.7 | 0.00 | 0.00 | 0.00 | 48 | 1020.3 |
| 20260906034124 | 66 | 78 | 0.0 | 0.9 | 0.00 | 0.00 | 0.00 | 48 | 1020.3 |
| 20260906033620 | 65 | 81 | 0.9 | 1.7 | 0.00 | 0.00 | 0.00 | 48 | 1020.4 |
| 20260906033120 | 65 | 71 | 0.0 | 0.9 | 0.00 | 0.00 | 0.00 | 48 | 1020.5 |
| 20260906032617 | 66 | 83 | 0.0 | 0.9 | 0.00 | 0.00 | 0.00 | 47 | 1020.4 |
| 20260906032116 | 66 | 71 | 0.9 | 0.9 | 0.00 | 0.00 | 0.00 | 47 | 1020.5 |
| 20260906031612 | 66 | 79 | 0.0 | 0.0 | 0.00 | 0.00 | 0.00 | 46 | 1020.4 |
| 20260906031107 | 67 | 56 | 1.7 | 1.7 | 0.00 | 0.00 | 0.00 | 45 | 1020.2 |
| 20260906030606 | 67 | 78 | 0.0 | 1.7 | 0.00 | 0.00 | 0.00 | 45 | 1020.3 |
| 20260906030101 | 67 | 100 | 0.0 | 0.9 | 0.00 | 0.00 | 0.00 | 44 | 1020.3 |
| 20260906025555 | 67 | 87 | 0.0 | 0.9 | 0.00 | 0.00 | 0.00 | 44 | 1020.4 |
| 20260906025054 | 68 | 79 | 0.0 | 1.7 | 0.00 | 0.00 | 0.00 | 44 | 1020.4 |
| 20260906024549 | 68 | 102 | 0.9 | 1.7 | 0.00 | 0.00 | 0.00 | 43 | 1020.3 |
| 20260906024043 | 68 | 88 | 0.9 | 2.6 | 0.00 | 0.00 | 0.00 | 43 | 1019.9 |
| 20260906023540 | 69 | 66 | 0.9 | 1.7 | 0.00 | 0.00 | 0.00 | 43 | 1020.0 |
| 20260906023034 | 69 | 56 | 2.6 | 3.5 | 0.00 | 0.00 | 0.00 | 42 | 1020.4 |
| 20260906022530 | 69 | 62 | 1.7 | 2.6 | 0.00 | 0.00 | 0.00 | 42 | 1020.2 |
| 20260906022025 | 69 | 41 | 0.9 | 1.7 | 0.00 | 0.00 | 0.00 | 43 | 1020.0 |
| 20260906021521 | 68 | 43 | 1.7 | 2.6 | 0.00 | 0.00 | 0.00 | 43 | 1020.0 |
| 20260906021020 | 69 | 95 | 0.0 | 1.7 | 0.00 | 0.00 | 0.00 | 42 | 1019.9 |
| 20260906020519 | 70 | 80 | 0.9 | 1.7 | 0.00 | 0.00 | 0.00 | 41 | 1020.0 |
| 20260906020019 | 70 | 53 | 1.7 | 1.7 | 0.00 | 0.00 | 0.00 | 41 | 1019.9 |
| 20260906015518 | 71 | 53 | 1.7 | 2.6 | 0.00 | 0.00 | 0.00 | 40 | 1019.8 |
| 20260906015012 | 71 | 77 | 0.9 | 3.5 | 0.00 | 0.00 | 0.00 | 40 | 1019.9 |
| 20260906014507 | 71 | 80 | 0.9 | 1.7 | 0.00 | 0.00 | 0.00 | 40 | 1019.9 |
| 20260906014003 | 72 | 80 | 1.7 | 3.5 | 0.00 | 0.00 | 0.00 | 39 | 1019.9 |
| 20260906013458 | 73 | 57 | 0.9 | 5.2 | 0.00 | 0.00 | 0.00 | 39 | 1019.9 |
| 20260906012948 | 73 | 10 | 1.7 | 5.2 | 0.00 | 0.00 | 0.00 | 39 | 1019.9 |
| 20260906012443 | 73 | 49 | 2.6 | 6.1 | 0.00 | 0.00 | 0.00 | 39 | 1019.8 |
| 20260906011942 | 74 | 82 | 1.7 | 5.2 | 0.00 | 0.00 | 0.00 | 39 | 1019.8 |
| 20260906011438 | 74 | 88 | 3.5 | 7.0 | 0.00 | 0.00 | 0.00 | 38 | 1019.8 |
| 20260906010933 | 75 | 39 | 4.3 | 7.0 | 0.00 | 0.00 | 0.00 | 38 | 1019.7 |
| 20260906010428 | 75 | 10 | 1.7 | 6.1 | 0.00 | 0.00 | 0.00 | 38 | 1019.7 |
| 20260906005924 | 75 | 50 | 1.7 | 3.5 | 0.00 | 0.00 | 0.00 | 37 | 1019.6 |
| 20260906005423 | 76 | 53 | 4.3 | 7.0 | 0.00 | 0.00 | 0.00 | 37 | 1019.6 |
| 20260906004922 | 76 | 44 | 2.6 | 3.5 | 0.00 | 0.00 | 0.00 | 36 | 1019.5 |
| 20260906004417 | 76 | 43 | 1.7 | 5.2 | 0.00 | 0.00 | 0.00 | 36 | 1019.6 |
| 20260906003913 | 76 | 42 | 3.5 | 5.2 | 0.00 | 0.00 | 0.00 | 35 | 1019.7 |
| 20260906003407 | 77 | 1 | 1.7 | 2.6 | 0.00 | 0.00 | 0.00 | 35 | 1019.6 |
| 20260906002902 | 77 | 62 | 3.5 | 6.1 | 0.00 | 0.00 | 0.00 | 34 | 1019.6 |
| 20260906002401 | 77 | 33 | 3.5 | 7.8 | 0.00 | 0.00 | 0.00 | 34 | 1019.5 |
| 20260906001852 | 77 | 44 | 5.2 | 8.7 | 0.00 | 0.00 | 0.00 | 34 | 1019.5 |
| 20260906001348 | 77 | 21 | 1.7 | 3.5 | 0.00 | 0.00 | 0.00 | 33 | 1019.6 |
| 20260906000843 | 78 | 49 | 3.5 | 7.0 | 0.00 | 0.00 | 0.00 | 33 | 1019.8 |
| 20260906000342 | 78 | 10 | 3.5 | 7.0 | 0.00 | 0.00 | 0.00 | 32 | 1019.8 |
| 20260905235837 | 78 | 29 | 3.5 | 7.0 | 0.00 | 0.00 | 0.00 | 32 | 1019.6 |
| 20260905235332 | 78 | 10 | 2.6 | 7.8 | 0.00 | 0.00 | 0.00 | 32 | 1019.7 |
| 20260905234827 | 78 | 50 | 2.6 | 5.2 | 0.00 | 0.00 | 0.00 | 32 | 1019.5 |
| 20260905234322 | 78 | 70 | 3.5 | 6.1 | 0.00 | 0.00 | 0.00 | 32 | 1019.7 |
| 20260905233817 | 79 | 56 | 2.6 | 5.2 | 0.00 | 0.00 | 0.00 | 32 | 1019.5 |
| 20260905233312 | 78 | 92 | 1.7 | 7.8 | 0.00 | 0.00 | 0.00 | 32 | 1019.5 |
| 20260905232811 | 78 | 35 | 5.2 | 8.7 | 0.00 | 0.00 | 0.00 | 32 | 1019.5 |
| 20260905232307 | 78 | 83 | 1.7 | 5.2 | 0.00 | 0.00 | 0.00 | 32 | 1019.3 |
| 20260905231803 | 79 | 46 | 7.0 | 7.8 | 0.00 | 0.00 | 0.00 | 31 | 1019.5 |
| 20260905231258 | 79 | 13 | 3.5 | 5.2 | 0.00 | 0.00 | 0.00 | 31 | 1019.4 |
| 20260905230754 | 78 | 40 | 4.3 | 7.0 | 0.00 | 0.00 | 0.00 | 31 | 1019.3 |
| 20260905230251 | 79 | 70 | 3.5 | 8.7 | 0.00 | 0.00 | 0.00 | 31 | 1019.3 |
| 20260905225746 | 79 | 100 | 1.7 | 3.5 | 0.00 | 0.00 | 0.00 | 31 | 1019.4 |
| 20260905225241 | 78 | 92 | 2.6 | 8.7 | 0.00 | 0.00 | 0.00 | 31 | 1019.1 |
| 20260905224740 | 78 | 99 | 7.0 | 11.3 | 0.00 | 0.00 | 0.00 | 31 | 1019.4 |
| 20260905224236 | 79 | 29 | 2.6 | 9.6 | 0.00 | 0.00 | 0.00 | 31 | 1019.0 |
| 20260905223732 | 78 | 26 | 3.5 | 6.1 | 0.00 | 0.00 | 0.00 | 31 | 1019.1 |